Presure
348 345 342 341 336 349 345 347 352 354 385 415 396 444 399 371 320 327 326 284 254 243 244 243 248 237 228 225 229 219 217 209 223 191 216 215 229 240 223 247 183 216 211 212 204 212 209 201 199 173 202 200 203 205
349 340 347 361 350 348 361 345 356 397 422 428 397 390 417 362 349 313 302 311 271 236 239 238 245 232 235 234 229 224 219 200 199 205 215 227 225 241 233 246 236 215 207 212 204 213 209 206 197 164 189 204 201 196
363 353 349 349 345 348 356 364 367 400 406 431 390 485 401 348 349 318 294 304 292 183 236 233 230 152 214 227 221 217 192 205 143 214 219 228 237 246 240 235 243 223 213 213 205 210 198 203 106 201 200 199 200 202
404 384 373 274 301 364 127 387 311 288 436 400 386 314 246 355 330 286 241 302 297 287 273 249 244 225 227 209 208 201 203 208 220 238 238 245 239 240 222 232 235 228 217 213 207 204 208 167 203 205 204 204 204 202
430 430 242 413 379 219 198 373 384 438 432 242 226 273 365 186 270 290 292 290 293 286 289 275 262 247 249 244 236 235 238 236 251 168 253 249 242 232 225 222 227 228 225 217 210 129 201 204 209 208 202 200 202 206
527 435 416 166 383 379 376 322 383 424 376 164 485 407 364 340 320 279 265 292 276 151 265 262 262 254 268 212 220 232 223 233 243 232 234 252 235 230 227 230 218 230 227 220 212 215 204 203 202 202 208 208 203 202
450 531 511 436 160 309 194 377 394 379 143 164 409 287 208 295 277 275 287 279 264 263 258 141 276 274 184 174 224 197 202 212 186 226 232 247 234 228 232 226 221 216 228 223 222 210 211 212 207 208 204 203 209 207
379 469 487 537 480 447 403 408 435 478 505 432 361 299 261 272 275 264 221 247 241 188 251 187 240 231 225 227 229 232 255 231 233 220 209 237 236 227 221 180 221 221 227 228 228 225 220 214 208 206 202 203 201 207
296 363 502 501 535 546 542 545 546 539 323 303 289 276 265 253 258 246 249 243 239 233 240 243 218 219 226 177 220 227 260 228 200 192 195 220 242 215 228 197 209 218 217 226 232 229 225 224 220 218 217 213 204 206
289 322 232 418 526 534 590 354 321 314 305 241 268 259 247 243 247 250 223 232 225 241 245 216 244 185 241 233 213 217 216 237 224 188 230 225 228 230 223 222 203 215 213 224 231 232 232 231 225 217 218 224 224 218
289 279 307 308 310 310 307 302 296 246 249 259 257 246 238 238 252 239 225 219 209 239 220 197 242 242 251 224 208 231 199 213 208 261 240 228 237 231 229 225 219 221 225 225 221 229 234 232 233 232 226 224 225 225
289 242 285 290 293 261 284 285 280 268 252 255 243 254 234 243 236 247 251 245 242 230 233 229 203 221 246 250 254 218 215 233 227 256 252 242 227 235 233 229 231 233 231 234 230 226 224 227 232 233 232 228 225 223
269 252 300 282 259 273 265 258 264 257 252 263 226 240 246 221 229 228 239 241 258 254 214 260 225 258 244 225 205 211 218 234 244 270 256 245 236 229 227 210 213 220 220 221 222 219 226 244 241 230 224 224 227 228
272 247 243 234 262 242 236 260 267 245 245 253 251 270 248 230 265 215 279 235 265 228 246 262 236 226 234 233 224 225 233 274 264 264 256 241 233 232 231 227 227 226 227 234 226 225 235 239 233 225 226 230 231 230
241 250 270 275 237 250 253 256 235 236 244 261 248 242 256 256 244 239 229 245 213 246 244 255 229 231 235 242 247 262 244 276 250 244 251 250 240 213 220 223 223 223 228 237 234 242 241 230 232 234 230 229 230 231
243 242 242 243 256 276 266 248 239 279 248 236 261 225 243 229 229 225 237 236 237 264 262 262 278 226 230 237 258 255 254 249 258 251 235 223 213 234 221 223 225 233 235 247 246 230 228 232 232 230 227 225 228 233
242 253 254 250 242 241 241 253 261 262 247 246 245 249 248 242 237 238 239 245 248 237 245 252 248 244 237 242 219 223 246 257 254 256 259 247 230 233 236 237 238 250 248 229 234 237 237 239 238 238 238 234 228 235
243 240 238 237 243 249 250 245 240 239 241 243 248 250 253 271 273 272 267 264 261 258 245 242 242 245 251 253 251 250 248 228 229 239 246 251 250 245 240 236 229 230 236 239 239 241 242 245 246 248 242 237 236 235
238 241 238 236 232 237 238 242 244 240 244 244 247 247 246 245 245 244 244 247 246 243 242 244 245 243 245 248 248 241 247 253 248 243 238 238 238 236 228 229 235 242 238 237 226 228 231 233 234 234 236 237 237 242
234 242 243 235 230 236 239 238 231 232 234 236 240 241 239 242 247 250 248 247 248 247 245 244 248 250 250 252 254 251 245 241 238 233 230 229 227 230 232 229 227 226 228 232 235 236 237 240 244 246 247 251 257 264
244 231 237 244 238 235 223 219 222 235 231 237 237 246 246 246 242 235 236 238 238 238 239 239 237 236 237 238 241 243 241 238 236 234 232 231 232 234 236 237 240 243 243 245 249 254 259 266 266 266 268 270 273 277
236 241 222 226 225 232 235 237 240 238 242 243 244 238 231 232 236 242 243 244 251 251 249 246 246 246 245 245 244 243 244 244 247 246 246 246 245 247 250 253 260 262 265 266 256 249 253 263 273 278 278 276 272 271
245 243 247 251 243 246 239 242 244 244 231 235 240 243 246 246 249 254 256 247 244 247 245 249 254 255 258 260 260 261 261 262 261 262 262 261 258 255 253 253 256 261 266 272 277 279 280 275 277 277 278 276 279 282
254 255 257 257 261 261 261 264 262 255 253 255 259 253 260 260 245 243 249 260 274 263 248 259 267 268 268 262 255 251 250 255 259 261 264 263 263 269 275 280 274 264 266 264 270 273 258 266 266 269 280 288 290 295
266 256 255 223 249 226 214 254 253 257 238 241 257 266 269 272 268 273 268 273 272 264 260 258 248 249 251 250 250 249 250 255 238 243 252 254 258 265 271 274 275 275 275 276 278 274 277 285 291 292 292 307 317 406
267 263 220 274 268 255 262 273 260 255 257 265 270 274 276 277 277 278 270 273 270 268 271 271 264 262 264 267 272 276 278 273 279 280 281 280 284 285 270 279 276 279 282 284 289 295 305 323 344 370 412 413 409 401
333 314 318 315 310 328 325 302 299 332 316 313 305 313 320 318 305 324 321 315 296 306 297 287 286 286 285 287 290 297 292 285 286 295 296 292 287 290 292 296 298 300 302 337 415 416 412 409 402 397 391 387 381 377
327 328 321 322 318 321 324 326 326 326 328 334 342 344 347 347 349 349 344 341 342 372 367 366 365 363 364 363 363 363 361 363 358 355 381 413 358 362 354 351 342 340 394 400 397 394 392 386 383 380 375 378 379 380
315 318 321 327 319 324 325 335 345 345 319 322 398 412 412 417 412 408 419 420 418 398 396 417 424 426 422 415 413 346 341 412 414 413 412 409 404 403 399 396 390 389 388 385 381 376 377 377 376 379 382 384 380 378
306 303 313 313 321 334 329 332 345 385 401 411 411 410 410 408 406 403 402 401 402 404 404 402 401 400 402 402 401 403 403 404 402 396 396 396 395 390 387 381 379 378 379 378 379 383 388 387 383 380 379 381 384 389
308 322 327 326 321 333 339 358 397 415 405 395 386 383 388 387 388 385 382 383 384 389 391 393 394 392 390 391 388 379 371 375 380 379 380 379 379 382 384 386 388 387 386 385 389 396 404 418 444 456 470 471 471 469
312 330 325 330 337 361 383 405 399 390 375 425 433 428 427 409 372 375 427 430 423 375 361 354 376 385 385 382 379 371 371 372 380 383 382 381 385 405 433 475 488 494 497 498 501 503 504 504 502 501 498 495 492 489
326 332 333 360 376 392 392 381 379 383 429 431 434 428 415 373 409 405 397 387 373 369 356 356 371 379 383 383 380 377 380 405 463 498 509 519 527 525 525 526 526 527 528 528 527 520 518 513 507 499 495 490 486 482
Wind_Speed
37 38 37 38 36 34 33 33 36 36 37 42 56 52 94 93 95 95 94 102 92 87 87 85 82 87 88 77 76 74 72 62 62 55 60 59 54 47 37 36 38 42 40 35 33 38 40 39 37 34 41 42 41 41
25 25 27 27 28 29 26 30 30 27 32 40 59 49 92 87 89 92 90 88 91 83 82 78 76 75 68 62 62 65 62 59 61 61 61 61 55 50 38 36 38 44 40 38 36 39 41 43 45 35 42 44 44 45
25 23 24 25 24 26 28 27 21 25 30 38 58 39 90 86 89 85 79 80 83 53 80 77 75 37 65 63 63 64 50 60 37 60 60 58 54 44 39 41 38 40 41 40 39 41 42 45 22 49 48 47 48 49
27 30 31 25 28 30 20 24 24 25 36 49 56 39 56 87 82 73 55 73 73 78 86 74 70 71 68 60 60 59 64 56 58 58 57 48 47 42 44 42 40 41 41 44 44 45 44 35 50 51 52 53 54 53
16 19 16 24 27 33 16 29 28 27 39 37 27 32 85 41 61 72 72 68 72 70 66 68 65 62 61 59 55 54 55 53 45 35 44 45 44 47 49 47 41 43 44 46 47 19 48 49 51 54 54 54 56 59
21 19 24 18 32 29 28 26 27 23 43 24 38 70 83 80 75 61 55 61 59 41 55 54 51 49 42 40 43 26 48 44 46 48 50 48 47 49 52 48 46 44 46 48 50 54 52 53 52 52 56 59 58 59
45 22 29 27 24 29 31 30 31 27 32 23 58 59 33 69 60 54 57 55 50 48 48 32 40 38 39 37 52 48 49 47 40 40 51 49 50 55 53 51 49 45 48 51 55 57 57 59 57 58 57 57 61 62
63 38 37 25 29 33 40 40 37 32 38 68 85 80 71 65 63 58 61 51 51 43 45 33 54 50 52 48 50 56 46 31 26 51 51 53 59 56 51 46 52 51 52 54 56 59 60 62 61 60 59 61 60 63
46 61 39 35 34 34 35 38 40 44 98 92 85 82 77 70 66 60 54 53 45 50 46 44 60 62 54 42 50 40 44 54 56 42 42 59 60 51 56 55 54 55 54 55 58 60 61 63 64 67 69 68 63 66
55 63 34 62 54 57 47 91 96 93 89 69 83 82 76 72 65 64 60 58 60 49 43 39 49 35 63 62 56 52 55 62 64 40 67 59 59 58 56 59 56 60 58 60 62 61 63 65 67 67 69 72 73 74
51 53 62 72 83 86 87 86 86 60 67 79 82 79 75 80 68 78 67 62 40 65 55 37 66 70 71 61 50 60 48 50 48 66 69 59 64 64 64 64 62 63 64 63 59 62 65 67 69 72 75 75 76 78
43 40 58 64 68 55 72 81 84 78 71 79 68 75 63 75 57 77 80 74 79 47 68 58 44 38 51 47 51 48 49 59 57 63 72 72 64 67 67 65 65 65 62 67 64 61 63 68 72 74 76 77 79 80
40 41 44 59 46 67 67 61 76 76 72 84 43 67 77 36 42 29 55 50 65 66 41 69 46 57 45 47 44 45 45 51 59 67 71 75 72 66 62 56 56 60 61 61 60 62 69 74 74 73 75 78 81 84
35 34 41 37 50 36 31 57 66 31 40 64 61 77 67 24 63 30 64 40 61 42 47 58 51 44 52 55 51 54 57 63 60 62 69 75 72 71 69 64 64 63 65 70 69 69 75 75 73 74 76 79 82 85
28 29 33 41 36 40 39 48 31 29 27 67 45 24 65 60 45 29 29 42 35 51 53 65 51 54 54 54 53 59 54 54 63 65 70 77 75 57 59 61 64 67 71 77 76 81 75 74 76 78 79 82 84 87
19 20 24 27 27 37 43 39 32 53 45 35 60 28 48 34 37 34 35 37 42 51 56 56 59 53 50 55 56 57 58 57 63 68 65 61 59 70 63 65 70 75 76 79 76 75 77 79 81 82 83 84 88 92
13 12 17 21 23 26 27 24 32 43 36 35 38 43 46 45 45 47 45 45 45 47 48 55 56 58 57 58 48 50 53 59 62 64 71 71 66 68 71 73 76 77 77 73 77 80 82 84 85 86 88 90 90 95
13 15 14 14 15 19 23 25 28 30 30 32 32 34 36 41 42 42 43 43 44 45 46 45 48 51 53 54 55 56 57 59 60 62 62 63 64 67 69 71 72 74 77 79 81 83 86 88 90 90 92 94 95 97
18 18 20 20 19 19 19 19 21 23 26 28 31 33 34 36 37 38 39 40 42 44 45 47 49 51 54 55 56 58 59 59 59 60 60 63 67 69 69 71 74 76 78 79 79 84 87 89 91 93 96 98 100 106
21 19 23 26 26 26 25 28 30 31 32 33 34 35 37 38 39 41 44 45 48 49 50 51 53 55 56 57 59 60 62 64 64 63 64 66 68 71 74 75 76 78 82 85 87 90 92 96 99 102 104 106 108 111
28 28 28 29 31 33 32 29 32 38 37 41 42 41 44 45 46 46 48 50 51 53 55 56 57 58 59 60 62 65 67 68 69 70 70 73 75 78 81 84 87 89 90 93 96 98 99 100 102 104 106 106 106 108
36 37 31 34 34 37 40 40 42 42 43 44 45 47 48 49 52 53 53 55 57 60 63 63 65 66 67 69 70 72 74 76 78 80 81 83 84 86 89 92 93 94 94 94 95 97 100 103 104 105 105 106 106 107
43 44 45 45 44 45 45 47 49 50 48 49 51 52 54 55 55 56 58 60 60 63 64 67 70 72 73 74 76 77 79 81 82 83 85 86 86 87 88 90 92 95 96 98 99 101 103 103 105 106 108 109 113 116
50 50 50 49 52 53 54 55 58 61 62 63 64 61 64 63 60 59 62 65 69 69 68 70 72 74 75 76 77 79 80 82 84 86 88 88 89 92 94 95 94 92 95 96 100 103 94 101 102 105 113 117 119 124
57 58 57 41 56 43 36 62 61 64 51 52 62 68 70 71 69 71 69 71 72 70 70 70 65 65 68 69 72 74 77 80 75 79 84 86 89 93 94 97 100 102 102 104 107 106 109 114 117 117 116 127 127 85
60 61 37 67 68 63 66 70 66 66 67 70 73 75 76 76 77 80 76 78 77 77 80 82 80 80 82 85 90 93 95 91 97 98 99 99 101 104 95 105 104 107 108 110 115 120 123 121 115 100 79 77 77 78
43 58 55 58 64 58 62 68 72 66 73 77 84 82 81 81 80 82 86 89 87 90 91 92 93 94 96 98 100 102 100 98 100 106 107 105 103 105 108 112 114 116 119 111 74 73 74 75 76 78 79 80 81 81
38 39 47 48 53 53 54 56 59 62 65 69 69 69 70 69 68 69 70 69 69 69 72 73 74 76 77 79 80 81 83 83 86 88 79 68 90 88 91 92 94 96 75 73 73 75 75 76 78 79 81 81 81 82
42 41 42 43 47 46 49 48 49 53 65 65 45 40 38 38 39 42 40 40 44 51 52 47 46 47 49 51 52 70 72 55 55 56 57 59 60 62 63 65 67 69 70 72 74 76 77 78 79 80 81 81 82 83
44 44 46 47 50 54 52 54 59 63 50 42 39 37 36 36 36 37 38 39 41 41 42 42 42 44 46 47 48 49 50 50 51 54 55 56 58 60 63 66 68 70 72 74 75 77 77 78 79 80 82 83 84 85
46 50 53 54 52 57 61 63 55 42 40 38 37 37 36 36 35 36 36 37 39 38 37 38 39 40 42 43 45 47 49 51 51 53 55 57 59 61 63 65 68 70 72 74 76 78 80 81 80 78 75 72 70 68
49 56 55 58 62 66 59 46 42 38 38 38 34 31 29 28 32 33 27 26 27 34 36 37 36 37 38 40 42 44 47 49 50 52 54 57 59 63 66 66 64 64 63 63 63 62 61 60 59 58 57 57 56 55
57 58 59 65 57 48 43 42 40 39 37 32 27 24 23 29 23 23 24 27 30 32 35 36 36 37 39 40 41 43 44 46 49 46 46 46 46 46 47 48 48 49 49 49 49 49 49 49 49 49 49 49 49 48
Wind_Direction
182 194 203 209 216 217 213 217 224 227 236 218 200 201 190 194 204 206 207 214 216 217 220 223 224 227 234 238 242 246 248 249 250 255 259 264 270 270 259 252 260 245 250 251 256 262 264 270 272 274 269 268 273 276
192 205 211 202 201 206 221 213 233 237 210 203 195 197 190 188 190 204 207 207 212 215 218 220 223 228 228 228 228 233 238 241 248 256 262 264 265 263 258 252 244 245 251 254 257 261 264 266 269 272 274 275 277 279
203 210 208 215 214 222 230 233 231 205 197 188 188 173 184 183 185 196 201 200 207 217 214 217 218 228 228 228 229 235 239 248 244 254 258 262 263 261 259 251 249 246 249 253 257 262 264 266 281 271 275 278 278 280
205 211 216 216 210 230 204 189 183 179 161 182 182 181 178 178 183 192 197 193 196 208 217 218 219 218 221 225 231 234 239 242 247 251 254 254 256 250 250 248 250 249 249 254 255 258 263 272 270 272 274 276 279 281
144 164 186 169 166 167 170 168 162 164 167 175 162 189 171 181 179 183 186 188 193 203 205 216 219 221 228 228 229 240 244 244 241 241 244 242 241 247 254 250 254 254 254 255 257 260 261 264 267 270 274 278 279 280
142 153 159 183 153 156 161 152 154 155 167 195 169 169 163 163 167 176 179 180 187 201 203 209 213 217 218 229 208 253 236 237 233 236 238 234 238 244 251 254 252 256 254 258 262 261 262 264 266 270 273 275 279 282
54 135 168 170 185 147 174 146 150 159 187 172 161 163 180 157 162 168 168 175 181 188 193 211 187 185 224 233 200 225 234 234 232 245 246 239 238 247 249 251 252 256 258 257 259 261 264 266 268 270 271 275 277 278
54 63 79 160 159 164 148 145 150 160 159 147 143 139 145 148 150 157 182 168 174 194 173 201 181 183 186 198 201 212 209 200 239 253 253 244 237 248 250 262 255 257 259 259 261 262 264 267 270 273 275 277 279 283
72 65 74 82 115 148 157 157 165 161 130 137 140 141 142 149 144 155 155 169 176 185 188 183 200 199 197 226 204 210 211 199 237 247 249 249 237 254 250 258 260 260 263 264 264 264 266 269 271 273 275 277 281 282
86 81 110 79 102 111 131 125 127 131 132 157 140 143 149 151 144 149 176 173 197 199 186 197 196 222 207 213 214 215 221 212 224 248 236 247 247 245 250 251 258 262 266 268 268 270 271 272 273 275 278 280 281 283
98 98 101 113 120 124 127 129 132 152 150 144 150 158 168 165 160 169 191 202 218 195 211 218 206 205 209 214 223 222 236 233 242 229 234 245 243 245 248 252 257 261 265 269 275 277 275 276 278 278 280 283 284 284
94 99 121 123 124 124 132 136 137 141 152 148 160 153 179 173 177 172 177 185 190 208 206 210 214 217 220 224 224 226 234 236 241 231 234 239 250 246 249 254 257 262 269 269 274 281 282 283 282 282 283 284 284 284
103 111 107 129 132 136 140 147 147 154 161 153 191 175 175 198 198 205 206 203 200 202 212 209 218 215 218 224 229 239 243 247 243 232 233 237 245 251 256 262 265 266 268 272 277 278 284 281 280 280 281 282 283 285
100 122 125 133 144 146 146 158 158 174 178 173 176 171 186 217 190 214 206 213 201 221 214 205 212 229 223 227 240 245 249 240 241 238 236 240 248 252 257 263 268 273 276 278 278 280 283 281 280 280 281 283 284 284
114 103 113 127 145 159 166 167 168 174 180 178 185 198 187 197 200 216 215 215 219 222 223 213 232 233 237 242 252 258 253 243 245 247 243 243 250 261 264 266 269 272 275 277 279 280 279 278 280 282 282 283 284 286
125 127 130 130 129 145 164 177 179 181 185 195 190 195 203 211 215 216 229 230 228 228 228 235 234 236 242 249 253 254 255 254 249 249 252 255 259 260 266 270 272 273 275 276 277 277 278 279 280 282 285 289 291 290
136 141 150 151 155 156 155 158 174 190 200 209 215 216 217 217 220 225 227 227 228 227 233 231 233 239 245 250 246 249 256 255 256 255 255 260 263 265 267 269 270 272 272 274 276 277 279 281 283 285 286 286 289 290
162 169 178 184 183 180 179 180 182 186 194 200 206 210 215 217 221 224 228 232 234 237 237 240 244 248 251 252 253 253 254 253 254 255 257 259 261 263 264 266 268 271 273 275 278 280 281 282 283 284 286 289 291 292
189 186 190 198 207 206 206 208 211 216 220 222 222 224 228 229 231 234 238 239 240 241 242 244 245 247 249 251 252 255 257 257 257 258 258 259 261 264 268 271 273 273 276 278 281 282 284 286 287 287 288 289 290 291
216 218 208 210 217 212 217 218 223 223 226 231 235 237 238 239 240 241 243 246 248 249 250 251 252 252 253 253 254 253 254 256 258 261 264 266 269 270 271 272 274 276 279 281 282 282 284 285 286 286 286 287 287 287
231 235 235 231 225 227 240 247 244 232 235 230 232 236 240 242 242 244 245 248 250 251 252 254 256 257 259 260 260 260 261 261 263 265 267 269 271 272 273 275 276 278 279 280 281 281 282 282 282 283 285 287 289 291
242 240 253 253 254 246 242 242 243 243 245 244 243 245 248 251 250 246 247 248 249 251 251 254 256 257 259 260 261 262 263 265 266 268 269 271 273 275 276 276 277 278 278 279 280 283 284 285 286 288 289 291 292 293
252 253 252 251 253 252 254 255 255 253 257 257 256 256 256 255 254 255 255 254 255 256 258 258 258 259 259 260 262 263 264 266 267 269 270 271 273 275 277 278 279 279 281 282 284 285 287 289 290 290 291 293 294 294
255 255 255 255 254 254 253 252 253 255 259 262 261 262 261 260 259 261 262 264 263 263 265 264 263 264 264 265 267 269 271 272 273 274 274 275 277 278 279 280 282 284 284 285 286 286 288 290 290 292 291 292 293 294
257 261 263 252 268 262 263 265 266 266 261 263 268 267 266 265 266 266 267 266 266 265 266 267 268 269 270 270 271 272 273 275 274 276 278 279 280 282 282 282 283 284 285 286 286 287 288 289 289 290 292 292 293 293
268 266 263 263 262 266 267 265 267 269 270 270 269 267 267 267 268 269 270 270 270 270 270 270 272 273 275 275 276 276 276 277 277 278 278 278 278 279 281 281 282 283 285 286 287 288 288 288 288 289 290 291 292 293
263 268 268 267 270 267 267 267 268 267 268 268 267 266 265 265 267 266 265 266 268 267 267 269 270 271 272 272 273 273 273 275 275 274 275 276 278 279 280 280 281 282 283 284 286 286 287 287 288 290 291 292 292 293
265 267 265 264 265 266 268 269 270 271 271 270 271 271 272 272 273 272 272 272 271 270 270 270 269 270 271 271 271 271 272 273 274 275 277 280 277 278 279 280 280 281 285 285 286 287 287 288 288 289 290 290 291 292
272 276 280 288 275 282 282 292 297 290 276 278 299 294 287 283 279 276 277 276 275 272 272 276 278 277 276 277 278 273 274 280 281 282 283 283 284 285 285 286 286 287 287 287 288 288 289 289 290 290 290 291 292 292
273 279 280 281 291 300 296 296 305 311 307 300 295 292 287 283 281 280 279 279 278 278 278 278 278 280 281 282 282 283 284 285 285 285 285 286 286 287 287 288 288 288 288 288 288 289 289 289 290 290 290 290 291 291
282 292 297 297 296 302 303 307 309 305 302 298 295 293 290 288 286 283 282 281 281 281 281 280 280 281 282 283 285 285 286 286 287 288 288 288 288 289 289 289 290 290 290 290 289 289 290 290 290 291 291 292 292 292
292 299 300 303 304 307 308 307 306 305 301 307 304 299 295 290 287 287 290 289 288 284 286 287 288 288 288 288 289 289 290 292 293 294 295 295 295 296 296 296 296 296 296 296 296 296 296 295 294 294 293 293 293 293
299 301 303 308 307 306 307 308 308 309 310 308 305 303 300 294 300 298 295 290 288 288 288 290 293 294 294 295 296 296 297 299 302 303 305 306 308 308 309 309 309 308 307 306 305 304 302 301 299 297 295 294 293 292